Location: Springfield
(37.2150°N, 93.2980°W)
Time: 09:05:07
(UTC-05:00)

Sakura Rocket - Pass Details

Date: 19 April 2018
Orbit: 476 x 1745 km, 28.7° (Epoch: 21 May)

Event Time Altitude Azimuth Distance (km) Brightness Sun altitude
Rises 20:52:22 0° 237° (WSW) 3,098 7.1 -12.1°
Reaches altitude 10° 20:55:31 10° 221° (SW) 1,984 5.9 -12.7°
Maximum altitude 20:58:48 20° 173° (S) 1,287 4.4 -13.3°
Enters shadow 21:00:00 18° 148° (SSE) 1,344 4.3 -13.5°
